Location: Kitt Peak
(31.9633°N, 111.6000°W)
Time: 03:26:50
(UTC-07:00)

Amateur Radio Satellites - All Passes

Search period start: 23 April 2014 02:56
Search period end: 24 April 2014 02:56
Location: Kitt Peak, 31.9633°N, 111.6000°W

Satellite Date Start Highest point End Downlink Frequencies (MHz)
Time Altitude Azimuth
JAS-1B 23 Apr 02:57:39 03:00:17 13° 95° (E) 03:03:00 435.800 - 435.900 CW/SSB
Gurwin Techsat 1B 23 Apr 03:00:38 03:05:41 44° 99° (E) 03:10:43 435.225 FM
Oscar 16 23 Apr 03:01:27 03:05:33 24° 291° (WNW) 03:09:39 437.025 USB, Beacon 2401.1428
Uribyol 2 23 Apr 03:44:24 03:47:54 19° 293° (WNW) 03:51:24 436.500 FM
TMSAT-1 23 Apr 03:46:04 03:51:23 89° 103° (ESE) 03:56:41 436.925 FM
KITSAT 1 23 Apr 04:00:34 04:04:52 15° 317° (NW) 04:09:12 435.175 FM
AO-Echo 23 Apr 04:03:51 04:06:01 13° 294° (WNW) 04:08:10 ?
Uosat F 23 Apr 04:23:24 04:28:24 72° 102° (ESE) 04:33:22 435.120 FM
AO-7 23 Apr 04:35:48 04:43:56 55° 103° (ESE) 04:52:02 29.400 - 29.500 MHz
Gurwin Techsat 1B 23 Apr 04:41:42 04:45:16 19° 293° (WNW) 04:48:49 435.225 FM
JAS-1B 23 Apr 04:45:35 04:51:11 60° 286° (WNW) 04:57:19 435.800 - 435.900 CW/SSB
RS-15 23 Apr 05:00:42 05:11:29 49° 109° (ESE) 05:21:51 29.354 - 29.394 USB, Beacon 29.352 USB
MaSat-1 23 Apr 05:27:37 05:29:51 17° 65° (ENE) 05:32:19 437.345 MHz
PANSAT 23 Apr 05:31:27 05:34:26 21° 161° (SSE) 05:37:25 not established
STRAND 1 23 Apr 05:36:16 05:40:27 26° 69° (ENE) 05:44:38 ?
Uosat F 23 Apr 06:05:46 06:06:31 10° 296° (WNW) 06:07:17 435.120 FM
Hamsat 23 Apr 06:08:07 06:12:08 35° 98° (E) 06:16:07 145.90 MHz
AO-7 23 Apr 06:29:27 06:36:12 29° 298° (WNW) 06:42:58 29.400 - 29.500 MHz
MaSat-1 23 Apr 07:05:26 07:08:05 21° 251° (WSW) 07:11:06 437.345 MHz
JAS-2 23 Apr 07:07:25 07:12:56 50° 101° (E) 07:19:07 435.800 - 435.900 CW/SSB, 435.910 FM
PANSAT 23 Apr 07:10:36 07:14:18 44° 172° (S) 07:18:01 not established
RS-15 23 Apr 07:13:19 07:23:50 43° 307° (NW) 07:34:07 29.354 - 29.394 USB, Beacon 29.352 USB
STRAND 1 23 Apr 07:15:07 07:19:29 29° 263° (W) 07:23:52 ?
Hamsat 23 Apr 07:45:10 07:47:46 16° 291° (WNW) 07:50:23 145.90 MHz
SO-67 23 Apr 07:57:14 08:00:38 49° 284° (WNW) 08:04:00 435.3500 MHz FM
Sapphire 23 Apr 08:05:42 08:09:52 22° 55° (NE) 08:14:00 437.095 MHz 1200 baud AX-25 AFSK
HO-68 23 Apr 08:24:15 08:29:11 20° 95° (E) 08:34:06 435.675 MHz FM
Saudisat 1A 23 Apr 08:39:55 08:43:32 25° 111° (ESE) 08:47:11 436.775 MHz
PCSat 23 Apr 08:49:20 08:54:41 58° 63° (ENE) 09:00:00 145.825 MHz
PANSAT 23 Apr 08:50:35 08:54:19 47° 185° (S) 08:58:03 not established
JAS-2 23 Apr 08:53:55 08:57:44 19° 292° (WNW) 09:01:49 435.800 - 435.900 CW/SSB, 435.910 FM
Oscar 10/S400 23 Apr 08:55:23 10:33:47 71° 225° (SW) 19:07:34 145.825 - 145.975 CW/USB, Beacon 145.810 USB
Oscar 11 23 Apr 09:33:20 09:37:04 27° 97° (E) 09:40:46 145.825 FM, Beacon 2401.500 USB
RS-15 23 Apr 09:37:32 09:40:19 11° 337° (NNW) 09:43:06 29.354 - 29.394 USB, Beacon 29.352 USB
Sapphire 23 Apr 09:48:20 09:53:24 41° 250° (WSW) 09:58:26 437.095 MHz 1200 baud AX-25 AFSK
KITSAT 1 23 Apr 09:59:41 10:06:04 25° 50° (NE) 10:12:23 435.175 FM
HO-68 23 Apr 10:10:09 10:17:13 62° 289° (WNW) 10:24:16 435.675 MHz FM
Saudisat 1A 23 Apr 10:19:16 10:23:01 26° 305° (NW) 10:26:47 436.775 MHz
PANSAT 23 Apr 10:31:02 10:34:14 25° 198° (SSW) 10:37:26 not established
PCSat 23 Apr 10:34:49 10:37:31 14° 256° (WSW) 10:40:12 145.825 MHz
Oscar 11 23 Apr 11:09:51 11:13:02 20° 290° (WNW) 11:16:13 145.825 FM, Beacon 2401.500 USB
FUNcube-1 23 Apr 11:11:36 11:15:53 64° 284° (WNW) 11:20:15 145.950 - 145.970 MHz USB
KITSAT 1 23 Apr 11:54:01 12:02:01 67° 248° (WSW) 12:09:57 435.175 FM
Oscar 19 23 Apr 12:25:49 12:29:39 22° 68° (ENE) 12:33:31 437.125 CW, 437.150 USB
ITAMSAT 1 23 Apr 12:32:56 12:35:02 13° 65° (ENE) 12:37:09 435.822 SSB
Oscar 16 23 Apr 12:34:18 12:38:39 29° 70° (ENE) 12:43:01 437.025 USB, Beacon 2401.1428
ISS 23 Apr 12:40:09 12:43:26 68° 133° (SE) 12:46:45 145.800 FM
Uribyol 2 23 Apr 13:17:09 13:21:55 39° 72° (ENE) 13:26:41 436.500 FM
AO-Echo 23 Apr 13:30:58 13:35:50 41° 73° (ENE) 13:40:35 ?
SO-50 23 Apr 13:52:15 13:56:43 84° 117° (ESE) 14:01:13 436.795 FM
AO-27 23 Apr 13:59:13 14:04:24 79° 257° (WSW) 14:09:36 436.795 MHz FM
Oscar 19 23 Apr 14:04:04 14:08:43 35° 262° (W) 14:13:26 437.125 CW, 437.150 USB
RS-15 23 Apr 14:08:00 14:17:51 36° 50° (NE) 14:27:51 29.354 - 29.394 USB, Beacon 29.352 USB
ITAMSAT 1 23 Apr 14:08:48 14:13:56 64° 258° (WSW) 14:19:05 435.822 SSB
Oscar 16 23 Apr 14:13:39 14:17:54 26° 263° (W) 14:22:11 437.025 USB, Beacon 2401.1428
Gurwin Techsat 1B 23 Apr 14:16:58 14:21:57 43° 72° (ENE) 14:26:57 435.225 FM
ISS 23 Apr 14:19:02 14:20:28 12° 329° (NNW) 14:21:55 145.800 FM
Uribyol 2 23 Apr 14:57:52 15:01:28 19° 265° (W) 15:05:04 436.500 FM
TMSAT-1 23 Apr 15:01:54 15:07:12 86° 76° (ENE) 15:12:30 436.925 FM
OPAL 23 Apr 15:05:20 15:10:32 65° 103° (ESE) 15:15:40 ?
AO-Echo 23 Apr 15:11:03 15:14:39 19° 265° (W) 15:18:12 ?
JAS-1B 23 Apr 15:23:59 15:32:09 74° 75° (ENE) 15:38:56 435.800 - 435.900 CW/SSB
AO-7 23 Apr 15:29:27 15:37:16 49° 67° (ENE) 15:45:06 29.400 - 29.500 MHz
Uosat F 23 Apr 15:31:49 15:36:45 59° 74° (ENE) 15:41:41 435.120 FM
UOSAT-12 23 Apr 15:49:46 15:54:14 70° 116° (ESE) 15:58:50 437.025 FM, 437.400 FM
Gurwin Techsat 1B 23 Apr 15:58:30 16:02:02 18° 266° (W) 16:05:36 435.225 FM
RS-15 23 Apr 16:19:54 16:30:32 58° 249° (WSW) 16:41:35 29.354 - 29.394 USB, Beacon 29.352 USB
OPAL 23 Apr 16:46:28 16:48:48 13° 297° (WNW) 16:51:08 ?
Hamsat 23 Apr 16:58:34 17:00:47 14° 68° (ENE) 17:03:01 145.90 MHz
Uosat F 23 Apr 17:14:04 17:15:49 12° 267° (W) 17:17:34 435.120 FM
JAS-1B 23 Apr 17:18:12 17:22:49 16° 264° (W) 17:27:04 435.800 - 435.900 CW/SSB
JAS-2 23 Apr 17:20:52 17:21:05 10° 65° (ENE) 17:21:19 435.800 - 435.900 CW/SSB, 435.910 FM
AO-7 23 Apr 17:23:06 17:30:08 31° 262° (W) 17:37:13 29.400 - 29.500 MHz
UOSAT-12 23 Apr 17:33:14 17:34:52 12° 312° (NW) 17:36:31 437.025 FM, 437.400 FM
STRAND 1 23 Apr 17:53:20 17:55:27 13° 93° (E) 17:57:34 ?
SO-67 23 Apr 18:26:41 18:29:28 23° 73° (ENE) 18:32:15 435.3500 MHz FM
AO-40 23 Apr 18:28:37 18:40:58 18° 200° (SSW) 18:46:23 Beacon 2401.320
Hamsat 23 Apr 18:32:32 18:36:24 36° 262° (W) 18:40:20 145.90 MHz
Saudisat 1A 23 Apr 18:49:53 18:54:15 62° 60° (ENE) 18:58:33 436.775 MHz
JAS-2 23 Apr 18:59:47 19:05:39 78° 257° (WSW) 19:11:00 435.800 - 435.900 CW/SSB, 435.910 FM
ISS 23 Apr 19:14:32 19:15:30 11° 30° (NNE) 19:16:29 145.800 FM
MaSat-1 23 Apr 19:25:53 19:28:20 22° 110° (ESE) 19:30:33 437.345 MHz
STRAND 1 23 Apr 19:29:55 19:34:54 57° 286° (WNW) 19:39:53 ?
SO-67 23 Apr 20:00:40 20:02:33 14° 266° (W) 20:04:26 435.3500 MHz FM
Oscar 11 23 Apr 20:25:46 20:27:30 12° 67° (ENE) 20:29:14 145.825 FM, Beacon 2401.500 USB
HO-68 23 Apr 20:32:50 20:39:49 62° 71° (ENE) 20:46:50 435.675 MHz FM
ISS 23 Apr 20:49:16 20:52:37 83° 226° (SW) 20:55:57 145.800 FM
PCSat 23 Apr 21:45:36 21:48:31 15° 104° (ESE) 21:51:26 145.825 MHz
Oscar 11 23 Apr 21:59:08 22:03:15 45° 261° (W) 22:07:23 145.825 FM, Beacon 2401.500 USB
FUNcube-1 23 Apr 22:03:33 22:07:38 53° 75° (ENE) 22:11:41 145.950 - 145.970 MHz USB
HO-68 23 Apr 22:22:59 22:27:51 20° 265° (W) 22:32:45 435.675 MHz FM
SO-50 23 Apr 22:29:10 22:32:45 21° 53° (NE) 22:36:22 436.795 FM
Sapphire 23 Apr 22:41:46 22:46:58 52° 111° (ESE) 22:52:13 437.095 MHz 1200 baud AX-25 AFSK
PCSat 23 Apr 23:26:06 23:31:23 55° 297° (WNW) 23:36:42 145.825 MHz
SO-50 24 Apr 00:09:07 00:13:22 35° 247° (WSW) 00:17:39 436.795 FM
KITSAT 1 24 Apr 00:22:32 00:29:19 30° 106° (ESE) 00:36:06 435.175 FM
UOSAT-12 24 Apr 00:25:01 00:28:13 18° 51° (NE) 00:31:24 437.025 FM, 437.400 FM
Sapphire 24 Apr 00:26:59 00:30:40 18° 306° (NW) 00:34:22 437.095 MHz 1200 baud AX-25 AFSK
Oscar 19 24 Apr 00:44:27 00:45:35 11° 92° (E) 00:46:43 437.125 CW, 437.150 USB
Oscar 16 24 Apr 00:51:58 00:54:54 15° 94° (E) 00:57:49 437.025 USB, Beacon 2401.1428
Uribyol 2 24 Apr 01:35:28 01:39:20 21° 96° (E) 01:43:12 436.500 FM
AO-Echo 24 Apr 01:44:23 01:47:29 17° 95° (E) 01:50:34 ?
UOSAT-12 24 Apr 02:04:05 02:08:33 44° 247° (WSW) 02:12:58 437.025 FM, 437.400 FM
OPAL 24 Apr 02:15:32 02:20:30 66° 73° (ENE) 02:25:34 ?
KITSAT 1 24 Apr 02:16:30 02:24:18 50° 301° (WNW) 02:32:09 435.175 FM
AO-27 24 Apr 02:17:19 02:22:25 57° 101° (E) 02:27:29 436.795 MHz FM
Oscar 19 24 Apr 02:20:08 02:25:18 67° 285° (WNW) 02:30:26 437.125 CW, 437.150 USB
ITAMSAT 1 24 Apr 02:26:38 02:31:48 70° 102° (ESE) 02:36:57 435.822 SSB
Oscar 16 24 Apr 02:29:27 02:34:27 50° 287° (WNW) 02:39:26 437.025 USB, Beacon 2401.1428
Gurwin Techsat 1B 24 Apr 02:38:35 02:42:59 26° 96° (E) 02:47:20 435.225 FM
